Tracking 20942 objects as of 12-Jul-2020
HD Live streaming from Space Station
objects crossing your sky now

COSMOS 1257

Track COSMOS 1257 now!
10-day predictions
COSMOS 1257 is classified as:


NORAD ID: 12327
Int'l Code: 1981-022H
Perigee: 1,475.1 km
Apogee: 1,486.4 km
Inclination: 74.0 °
Period: 115.4 minutes
Semi major axis: 7851 km
RCS: 0.7143 m2 (medium)
Launch date: March 6, 1981
Source: Commonwealth of Independent States (former USSR) (CIS)
Launch site: PLESETSK MISSILE AND SPACE COMPLEX (PKMTR)
aabbcc
Your satellite tracking list
Your tracking list is empty




NASA's NSSDC Master Catalog

Two Line Element Set (TLE):
1 12327U 81022H   20193.87744351 -.00000025 +00000-0 -62654-4 0  9998
2 12327 074.0298 046.5526 0007211 298.3991 072.9649 12.47817996792444
Source of the keplerian elements: AFSPC